Weather History for Gallup, NM

Change the Weather History Date:

Tuesday, June 3, 2014

  Actual Average Record
Temperature  
Mean Temperature 70 °F -  
Max Temperature 88 °F 79 °F 91 °F (2006)
Min Temperature 52 °F 38 °F 34 °F (1982)
Cooling Degree Days 5    
Growing Degree Days 20 (Base 50)    
Moisture  
Dew Point 20 °F    
Average Humidity 15    
Maximum Humidity 27    
Minimum Humidity 7    
Precipitation  
Precipitation 0.00 in - - ()
Sea Level Pressure  
Sea Level Pressure 29.60 in    
Wind  
Wind Speed 10 mph (SW)    
Max Wind Speed 28 mph    
Max Gust Speed 33 mph    
Visibility 10 miles    
Events      
Averages and records for this station are not official NWS values.
T = Trace of Precipitation, MM = Missing Value Source: NWS Daily Summary

Daily Weather History Graph

Daily Weather History Graph

Search for Another Location

Airport:

Trip Planner

Search our weather history database for the weather conditions in past years. The results will help you decide how hot, cold, wet, or windy it might be!

Date:

Astronomy

Jun. 03, 2014 Rise Set
Actual Time 6:00 AM MDT 8:26 PM MDT
Civil Twilight 5:30 AM MDT 8:56 PM MDT
Nautical Twilight 4:54 AM MDT 9:32 PM MDT
Astronomical Twilight 4:14 AM MDT 10:12 PM MDT
Moon 11:19 AM MDT (6/3) 12:02 AM MDT (6/3)
Length of Visible Light 15h 25m
Length of Day
14h 26m
Waxing Crescent, 30% of the Moon is Illuminated
Jun 3
Waxing Crescent
Jun 5
First Quarter
Jun 12
Full
Jun 19
Last Quarter
Jun 27
New

Hourly Weather History & Observations

Time (MDT) Temp. Dew Point Humidity Pressure Visibility Wind Dir Wind Speed Gust Speed Precip Events Conditions
12:53 AM 57.9 °F 17.1 °F 20% 29.62 in 10.0 mi Calm Calm - N/A   Clear
1:53 AM 63.0 °F 17.1 °F 17% 29.57 in 10.0 mi SSE 10.4 mph - N/A   Clear
2:53 AM 60.1 °F 19.0 °F 20% 29.57 in 10.0 mi SSE 9.2 mph - N/A   Clear
3:53 AM 57.9 °F 19.0 °F 22% 29.58 in 10.0 mi Calm Calm - N/A   Clear
4:53 AM 52.0 °F 18.0 °F 26% 29.64 in 10.0 mi East 3.5 mph - N/A   Clear
5:53 AM 52.0 °F 19.0 °F 27% 29.65 in 10.0 mi Calm Calm - N/A   Clear
6:53 AM 55.9 °F 19.0 °F 24% 29.65 in 10.0 mi Calm Calm - N/A   Clear
7:53 AM 70.0 °F 21.9 °F 16% 29.59 in 10.0 mi SSW 6.9 mph - N/A   Clear
8:53 AM 75.0 °F 25.0 °F 16% 29.64 in 10.0 mi SW 12.7 mph - N/A   Clear
9:53 AM 79.0 °F 26.1 °F 14% 29.63 in 10.0 mi WSW 20.7 mph 27.6 mph N/A   Clear
10:53 AM 79.0 °F 24.1 °F 13% 29.63 in 10.0 mi SW 25.3 mph 31.1 mph N/A   Clear
11:53 AM 82.0 °F 23.0 °F 11% 29.67 in 10.0 mi WSW 18.4 mph 29.9 mph N/A   Clear
12:53 PM 82.0 °F 21.0 °F 10% 29.65 in 10.0 mi WSW 16.1 mph 23.0 mph N/A   Clear
1:53 PM 86.0 °F 21.9 °F 10% 29.57 in 10.0 mi SW 19.6 mph 29.9 mph N/A   Clear
2:53 PM 87.1 °F 23.0 °F 10% 29.55 in 10.0 mi WSW 18.4 mph 26.5 mph N/A   Clear
3:53 PM 88.0 °F 19.9 °F 8% 29.55 in 10.0 mi SW 21.9 mph 33.4 mph N/A   Clear
4:53 PM 86.0 °F 19.9 °F 9% 29.60 in 10.0 mi WSW 18.4 mph 32.2 mph N/A   Clear
5:53 PM 86.0 °F 19.9 °F 9% 29.58 in 10.0 mi SW 17.3 mph 27.6 mph N/A   Clear
6:53 PM 86.0 °F 16.0 °F 7% 29.55 in 10.0 mi WSW 27.6 mph 33.4 mph N/A   Clear
7:53 PM 81.0 °F 15.1 °F 8% 29.49 in 10.0 mi SW 20.7 mph 26.5 mph N/A   Clear
9:53 PM 68.0 °F 14.0 °F 12% 29.55 in 10.0 mi SW 9.2 mph - N/A   Clear